Phoenix Deer Valley, AZ

1:06 PM MST on September 25, 2017 (GMT -0700)
Phoenix-Deer Valley Municipal

Weather History for KDVT - November, 2011

Change the Weather History Date:

Wednesday, November 23, 2011

  Actual Average Record
Temperature  
Mean Temperature 66 °F -  
Max Temperature 78 °F 67 °F 82 °F (2012)
Min Temperature 53 °F 46 °F 39 °F (2000)
Cooling Degree Days 2    
Growing Degree Days 16 (Base 50)    
Moisture  
Dew Point 33 °F    
Average Humidity 34    
Maximum Humidity 55    
Minimum Humidity 17    
Precipitation  
Precipitation 0.00 in - - ()
Sea Level Pressure  
Sea Level Pressure 29.98 in    
Wind  
Wind Speed 4 mph (East)    
Max Wind Speed 9 mph    
Max Gust Speed -    
Visibility 10 miles    
Events      
Averages and records for this station are not official NWS values.
T = Trace of Precipitation, MM = Missing Value Source: NWS Daily Summary

Daily Weather History Graph

Daily Weather History Graph

Search for Another Location

Airport or City:

Trip Planner

Search our weather history database for the weather conditions in past years. The results will help you decide how hot, cold, wet, or windy it might be!

Date:

Astronomy

Nov. 23, 2011 Rise Set
Actual Time 7:07 AM MST 5:21 PM MST
Civil Twilight 6:40 AM MST 5:48 PM MST
Nautical Twilight 6:10 AM MST 6:18 PM MST
Astronomical Twilight 5:40 AM MST 6:48 PM MST
Moon 5:18 AM MST (11/23) 4:05 PM MST (11/23)
Length of Visible Light 11h 07m
Length of Day
10h 14m
Waning Crescent, 3% of the Moon is Illuminated
Nov 23
Waning Crescent
Nov 24
New
Dec 2
First Quarter
Dec 10
Full
Dec 17
Last Quarter

Hourly Weather History & Observations

Time (MST) Temp. Dew Point Humidity Pressure Visibility Wind Dir Wind Speed Gust Speed Precip Events Conditions
12:53 AM 57.0 °F 39.0 °F 51% 30.11 in 10.0 mi NE 4.6 mph - N/A   Clear
1:53 AM 55.0 °F 39.0 °F 55% 30.10 in 10.0 mi NNE 3.5 mph - N/A   Clear
2:53 AM 55.0 °F 39.0 °F 55% 30.08 in 10.0 mi NE 9.2 mph - N/A   Clear
3:53 AM 57.0 °F 37.0 °F 47% 30.05 in 10.0 mi NE 5.8 mph - N/A   Clear
5:53 AM 60.1 °F 33.1 °F 36% 30.03 in 10.0 mi ENE 4.6 mph - N/A   Clear
6:53 AM 57.9 °F 33.1 °F 39% 30.03 in 10.0 mi ENE 3.5 mph - N/A   Clear
7:53 AM 59.0 °F 33.1 °F 38% 30.04 in 10.0 mi Calm Calm - N/A   Clear
8:53 AM 66.0 °F 33.1 °F 29% 30.03 in 10.0 mi Variable 3.5 mph - N/A   Clear
9:53 AM 68.0 °F 35.1 °F 30% 30.04 in 10.0 mi South 5.8 mph - N/A   Clear
10:53 AM 71.1 °F 32.0 °F 24% 30.04 in 10.0 mi SSE 5.8 mph - N/A   Clear
11:53 AM 73.0 °F 33.1 °F 23% 30.01 in 10.0 mi South 3.5 mph - N/A   Clear
1:53 PM 77.0 °F 30.9 °F 19% 29.94 in 10.0 mi Variable 3.5 mph - N/A   Clear
2:53 PM 78.1 °F 28.9 °F 17% 29.90 in 10.0 mi SE 5.8 mph - N/A   Clear
3:53 PM 78.1 °F 28.9 °F 17% 29.89 in 10.0 mi SE 6.9 mph - N/A   Clear
4:53 PM 75.9 °F 30.9 °F 19% 29.89 in 10.0 mi SSE 5.8 mph - N/A   Clear
5:53 PM 72.0 °F 32.0 °F 23% 29.89 in 10.0 mi Calm Calm - N/A   Clear
6:53 PM 63.0 °F 35.1 °F 35% 29.91 in 9.0 mi Calm Calm - N/A   Clear
7:53 PM 62.1 °F 34.0 °F 35% 29.93 in 10.0 mi South 3.5 mph - N/A   Clear
8:53 PM 63.0 °F 30.0 °F 29% 29.93 in 10.0 mi NE 4.6 mph - N/A   Clear
9:53 PM 59.0 °F 32.0 °F 36% 29.93 in 10.0 mi Calm Calm - N/A   Clear
10:53 PM 57.0 °F 30.9 °F 37% 29.93 in 10.0 mi Calm Calm - N/A   Clear
11:53 PM 53.1 °F 33.1 °F 47% 29.92 in 10.0 mi Calm Calm - N/A   Clear